Regional Weather Roundup
Issued by NWS San Diego, CA

Current Version | Previous Version | Text Only | Print | Product List | Glossary On
Versions: 1 2 3 4 5 6 7 8 9 10 11 12 13 14 15 16 17 18 19 20 21 22 23 24 25 26 27 28 29 30 31 32 33 34 35 36 37 38 39 40 41 42 43 44 45 46 47 48 49 50
000
ASUS46 KSGX 212111
RWRSGX

SAN DIEGO HOURLY WEATHER ROUNDUP
NATIONAL WEATHER SERVICE SAN DIEGO CA
200 PM PDT TUE AUG 21 2018

NOTE: "FAIR" INDICATES FEW OR NO CLOUDS BELOW 12,000 FEET WITH NO
SIGNIFICANT WEATHER AND/OR OBSTRUCTIONS TO VISIBILITY.

CAZ042-043-060-061-PZZ750-775-212200-

GREATER SAN DIEGO AREA

CITY           SKY/WX    TMP DP  RH WIND       PRES   REMARKS
SAN DIEGO AP   MOSUNNY   79  64  60 SW12      29.97F
NATIONAL CITY    N/A     78  68  70 SW3       29.97F
CHULA VISTA      N/A     80  69  67 CALM      29.88F
IMPERIAL BEACH MOSUNNY   76  63  64 W9        29.97F
BROWN FIELD    SUNNY     80  64  58 W9        29.96F
MIRAMAR MCAS   MOSUNNY   84  63  49 W8        29.96F
MONTGOMERY FLD SUNNY     80  62  54 SW8       29.96F
GILLESPIE FLD  MOSUNNY   84  63  48 SW12      29.95F

$$

NORTH SAN DIEGO COUNTY

CITY           SKY/WX    TMP DP  RH WIND       PRES   REMARKS
CAMP PENDLETON SUNNY     82  65  56 SW8       29.94F
OCEANSIDE AP   SUNNY     81  63  54 SW9       29.94F
OCEANSIDE HBR    N/A     76  68  76 NE6       29.98F
VISTA            N/A     79  67  67 SW5       29.92F
CARLSBAD       SUNNY     76  64  66 SW8       29.95F
DEL MAR          N/A     85  68  56 W3        29.97F
LA JOLLA SCRIP   N/A     74  67  77 SW8       29.96F
ESCONDIDO        N/A     87  68  53 W7        29.94F
SAN MARCOS       N/A     80  67  64 NW5       29.98F
POWAY            N/A     87  65  48 SW3       29.92F

$$

EAST SAN DIEGO COUNTY

CITY           SKY/WX    TMP DP  RH WIND       PRES   REMARKS
RAMONA         SUNNY     88  61  40 W9        29.98S
LA MESA          N/A     81  65  59 W8        29.89F
JAMUL            N/A     86  68  54 CALM      29.93F
CAMPO            N/A     91  52  26 SW17G23   29.97F

$$

ORANGE COUNTY AND THE LOS ANGELES BASIN

CITY           SKY/WX    TMP DP  RH WIND       PRES   REMARKS
JOHN WAYNE AP  MOSUNNY   80  65  59 SW9       29.95F
LAGUNA BEACH     N/A     79  69  71 CALM      29.91F
HUNTINGTON BCH   N/A     80  69  67 SW3       29.96F
LOS ALAMITOS   SUNNY     81  65  57 SW12      29.95F
FULLERTON      SUNNY     85  64  49 SW8       29.93F
LONG BEACH     FAIR      81  65  58 CALM      29.95F
L.A. AP        MOSUNNY   78  66  66 SW13      29.96F
L.A. DOWNTOWN  SUNNY     82  66  58 VRB3      29.94F

$$

THE INLAND EMPIRE

CITY           SKY/WX    TMP DP  RH WIND       PRES   REMARKS
CORONA         SUNNY     88  67  49 W10       29.94F
CHINO          SUNNY     90  63  40 W7        29.95F
ONTARIO        MOSUNNY   88  64  44 W9        29.95F
SAN BERNARDINO MOSUNNY   93  63  36 SW9       29.95F HAZE
RIVERSIDE AP   SUNNY     88  62  41 NW8       29.94F
MORENO VALLEY    N/A     91  68  46 SW7       28.09F HX  95
MARCH ARB      SUNNY     89  63  41 NW10      29.96F
HORSETHIEF CYN   N/A     88  59  37 E10       29.91F
PERRIS           N/A     90  65  43 W5          N/A
HEMET EAST       N/A     89  49  24 SW2       29.86F
FRENCH VALLEY  FAIR      88  59  37 SW9       29.96F
TEMECULA         N/A     88  65  45 W7        29.98F

$$

SAN BERNARDINO AND RIVERSIDE COUNTY MOUNTAINS

CITY           SKY/WX    TMP DP  RH WIND       PRES   REMARKS
BIG BEAR AP    PTSUNNY   73  39  29 W15       30.28S
ANGELUS OAKS     N/A     80  54  39 CALM      29.79F

$$

SOUTHERN DESERT INCLUDING THE COACHELLA VALLEY

CITY           SKY/WX    TMP DP  RH WIND       PRES   REMARKS
PALM SPRINGS   SUNNY    106  59  21 VRB5      29.84F HX 106
THOUSAND PALMS   N/A    101  66  32 SE7       29.79F HX 105
PALM DESERT      N/A    105  71  33 CALM        N/A  HX 114
THERMAL        SUNNY    106  65  26 SE15G21   29.77F HX 110
BLYTHE         SUNNY    104  65  28 S14       29.84F HX 108
IMPERIAL AP    SUNNY    103  66  30 SE9G22    29.79F HX 107
EL CENTRO NAS  MOSUNNY  105  63  25 SE10      29.81F HX 108
YUMA AZ        PTSUNNY  104  64  27 S20G26    29.83F HX 107
MEXICALI       MOSUNNY  100  64  30 E6        29.83F HX 103

$$

UPPER DESERT

CITY           SKY/WX    TMP DP  RH WIND       PRES   REMARKS
VICTORVILLE AP SUNNY    N/A N/A N/A S7        29.98F
HESPERIA         N/A     92  51  24 W7        29.83F
APPLE VALLEY     N/A     94  56  28 NW8       29.83F
PALMDALE       SUNNY     93  50  23 SW18      29.98F
LANCASTER      SUNNY     94  38  14 SW22      29.96F
EDWARDS AFB    MOSUNNY   97  34  11 SW23G30   29.92S
DAGGETT        SUNNY    105  43  12 W17G23    29.88F HX 100
29 PALMS N     SUNNY    101  53  20 SW8G23    29.96F HX  99
NEEDLES        SUNNY    108  64  24 S14G26    29.84F HX 112

$$

REGIONAL REPORTS

CITY           SKY/WX    TMP DP  RH WIND       PRES   REMARKS
SANTA BARBARA  PTSUNNY   75  65  70 SW8       29.95F
LAS VEGAS NV   MOSUNNY  103  45  14 S13G25    29.86F HX  99
PHOENIX AZ     PTSUNNY   99  60  27 SE9       29.91F HX  99
TIJUANA        SUNNY     81  63  54 NW5       29.99F
ENSENADA NW      N/A     76  32  20 W14       29.91S

$$

OFFSHORE ISLANDS

CITY           SKY/WX    TMP DP  RH WIND       PRES   REMARKS
CATALINA ARPT  SUNNY     72  64  76 W6        30.02S
SAN CLEMENTE I MOSUNNY   73  63  70 W7        29.99F
SAN NICOLAS IS PTSUNNY   71  65  81 NW10      29.98F

$$

MARINE AND OFFSHORE BUOY REPORTS

STATION/POSITION SKY/WX   TEMP    WIND        PRES    VSBY  SWELL
                          AIR SEA DIR/SP/G                  HT/PER/DIR
                          (F)     (DEG/KT/KT) (MB)    (MI)  (FT/S/D)
TANNER BANKS               65 71              1015.6F
S CLEMENTE BASIN           70 74  280/  8/ 10 1015.0F         3/200/13
SAN NICOLAS IS.               69                N/A           2/310/11
SO. S. ROSA ISLA           63 69  290/ 14/ 16 1015.1F         3/300/10
W. S. BARBARA CH              66                N/A
M. S. BARBARA CH           66 68  260/ 10/ 12 1015.2F         2/250/ 7
S. MONICA BASIN            69 72  250/  8/ 10 1014.9F         2/180/13
S PEDRO CHANNEL               74                N/A           2/190/18
CMP PENDLETON NS              76                N/A           2/220/18
OCEANSIDE OFFSHR              76                N/A           2/200/13
TORREY PINES OTR              76                N/A           2/210/12
SAN DIEGO BAY                                 1014.2F
POINT LOMA SOUTH              76                N/A           2/190/13

$$




USA.gov is the U.S. government's official web portal to all federal, state and local government web resources and services.